Flag Weather past 2 weeks in Dublin, Ireland

Now
50 °F

Scattered clouds.


Feels Like: 46 °F
Forecast: 47 / 52 °F
Wind: 9 mph from East

Location: Dublin Airport

Current Time: Nov 28, 2014 at 12:48:45 PM

Latest Report: Nov 28, 2014 at 12:00 PM


Visibility: N/A

Pressure: 29.62 "Hg

Humidity: 94%

Dew point: 48 °F

Location of DublinLocation

Historic Weather in Dublin — Graph

°F

Dublin temperature yesterday

Maximum temperature yesterday: 50 °F (at 11:00 PM)
Minimum temperature yesterday: 28 °F (at 2:00 AM)
Average temperature yesterday: 40 °F

Past Weeks' High & Low Weather Summary

 TemperatureHumidityPressure
High55 °F (Nov 21, 10:00 PM)100% (Nov 13, 12:30 PM)30.27 "Hg (Nov 13, 12:30 PM)
Low28 °F (Nov 27, 2:00 AM)66% (Nov 24, 1:00 PM)29.00 "Hg (Nov 14, 5:30 AM)
Average46 °F91%29.79 "Hg
* Reported Nov 13 11:00 AM — Nov 28 11:30 AM, Dublin, Weather by CustomWeather, © 2014

Note: Actual official high and low records may vary slightly from our data, if they occured in-between our weather recording intervals... More about our weather records

Advertising

Dublin weather history for previous 24 hours

 ConditionsComfort  
Time TempWeatherWind HumidityBarometerVisibility
11:30 AM
Nov 28
50 °FScattered clouds.10 mph94%29.62 "HgN/A
11:00 AM50 °FScattered clouds.8 mph88%29.62 "HgN/A
10:30 AM50 °FScattered clouds.8 mph88%29.62 "HgN/A
10:00 AM48 °FScattered clouds.8 mph94%29.59 "HgN/A
9:30 AM48 °FScattered clouds.7 mph87%29.59 "HgN/A
9:00 AM48 °FScattered clouds.3 mph94%29.59 "HgN/A
8:30 AM48 °FScattered clouds.7 mph87%29.56 "HgN/A
8:00 AM48 °FPassing clouds.7 mph87%29.56 "HgN/A
7:30 AM48 °FPassing clouds.7 mph87%29.56 "HgN/A
7:00 AM50 °FPartly cloudy.9 mph88%29.53 "HgN/A
6:30 AM50 °FPartly cloudy.10 mph82%29.53 "HgN/A
6:00 AM48 °FPartly cloudy.10 mph87%29.53 "HgN/A
5:30 AM48 °FPassing clouds.9 mph87%29.53 "HgN/A
5:00 AM48 °FPartly cloudy.9 mph87%29.53 "HgN/A
4:30 AM48 °FPartly cloudy.10 mph87%29.50 "HgN/A
4:00 AM48 °FPartly cloudy.9 mph87%29.50 "HgN/A
3:30 AM48 °FPartly cloudy.10 mph87%29.50 "HgN/A
3:00 AM50 °FPartly cloudy.12 mph82%29.50 "HgN/A
2:30 AM50 °FPartly cloudy.13 mph82%29.50 "HgN/A
2:00 AM50 °FPartly cloudy.10 mph82%29.50 "HgN/A
1:30 AM50 °FPartly cloudy.12 mph82%29.50 "HgN/A
1:00 AM50 °FPartly cloudy.14 mph82%29.50 "HgN/A
12:30 AM50 °FPartly cloudy.17 mph82%29.50 "HgN/A
12:00 AM48 °FPartly cloudy.20 mph87%29.47 "HgN/A
11:30 PM
Nov 27
48 °FPartly cloudy.22 mph87%29.47 "HgN/A
11:00 PM50 °FPassing clouds.16 mph82%29.47 "HgN/A
10:30 PM48 °FPassing clouds.20 mph82%29.47 "HgN/A
10:00 PM46 °FPassing clouds.18 mph87%29.47 "HgN/A
9:30 PM46 °FPassing clouds.18 mph87%29.47 "HgN/A
9:00 PM46 °FPassing clouds.15 mph87%29.47 "HgN/A
8:30 PM46 °FPassing clouds.15 mph87%29.47 "HgN/A
8:00 PM46 °FPassing clouds.13 mph82%29.47 "HgN/A
7:30 PM46 °FPassing clouds.10 mph82%29.47 "HgN/A
7:00 PM46 °FPassing clouds.8 mph82%29.47 "HgN/A
6:30 PM46 °FPassing clouds.10 mph82%29.47 "HgN/A
6:00 PM46 °FPassing clouds.12 mph82%29.47 "HgN/A
5:30 PM46 °FPassing clouds.15 mph82%29.47 "HgN/A
5:00 PM48 °FPartly cloudy.14 mph82%29.47 "HgN/A
4:30 PM48 °FPartly cloudy.12 mph82%29.47 "HgN/A
4:00 PM48 °FScattered showers. Broken clouds.10 mph82%29.47 "HgN/A
3:30 PM46 °FPartly sunny.6 mph87%29.47 "HgN/A
3:00 PM48 °FPartly sunny.6 mph82%29.47 "HgN/A
2:30 PM48 °FPartly sunny.5 mph87%29.47 "HgN/A
2:00 PM48 °FPartly sunny.7 mph87%29.47 "HgN/A
1:30 PM46 °FPartly sunny.8 mph93%29.50 "HgN/A
1:00 PM48 °FScattered clouds.6 mph82%29.50 "HgN/A
12:30 PM46 °FScattered clouds.7 mph87%29.50 "HgN/A
12:00 PM46 °FScattered clouds.6 mph87%29.50 "HgN/A
Weather by CustomWeather, © 2014

See weather overviewHow to use our weather pages